Location: Boca do Mato
(22.9085°S, 43.2930°W)
Time: 22:41:33
(UTC+00:00)

Cosmos 1937 Rocket - Pass Details

Date: 14 July 2020
Orbit: 746 x 781 km, 74.1° (Epoch: 10 August)

Event Time Altitude Azimuth Distance (km) Brightness Sun altitude
Rises 08:32:52 0° 189° (S) 3,213 6.5 -14.0°
Reaches altitude 10° 08:35:17 10° 184° (S) 2,285 5.7 -13.4°
Maximum altitude 08:40:22 56° 106° (ESE) 893 4.2 -12.3°
Drops below altitude 10° 08:45:26 10° 27° (NNE) 2,277 6.7 -11.2°
Sets 08:47:50 0° 23° (NNE) 3,200 7.4 -10.7°
